[[{"header":{"parameterUnit":"m.s-1","parameterCategory":1,"la1":30.2992,"la2":30.254,"lo1":-89.0895,"lo2":-89.0443,"dy":0.0025,"dx":0.0025,"nx":19,"ny":19,"refTime":"2026-03-25T21:00:00:Z","depth":0,"parameterNumber":2,"parameterNumberName":"U-component_of_WINDS"},"data":[0,0,0,-1.8897,-1.8898,-1.8975,-1.8975,-1.9074,-1.9075,0,0,0,0,0,0,0,0,0,0,0,-1.8874,-1.8875,-1.8897,-1.8898,-1.8975,-1.8975,-1.9074,-1.9075,0,0,0,0,0,0,0,0,0,0,0,-1.8874,-1.8875,-1.8876,-1.8899,-1.8975,-1.8975,-1.9074,-1.9016,0,0,0,0,0,0,0,0,0,0,-1.8941,-1.8921,-1.8875,-1.8876,-1.8899,-1.8975,-1.8975,-1.9013,-1.9019,-1.904,0,-1.9058,0,-1.9068,-1.9082,-1.9082,0,0,0,-1.8898,-1.8915,-1.8936,-1.8876,-1.89,-1.8975,-1.894,-1.9016,-1.9024,-1.9048,-1.9059,-1.9063,-1.907,-1.9082,-1.9083,-1.9201,-1.9201,0,0,-1.8894,-1.8888,-1.8931,-1.894,-1.8928,-1.8938,-1.8943,-1.9021,-1.9032,-1.9059,-1.9065,-1.9071,-1.9083,-1.9084,-1.92,-1.9201,0,0,0,-1.8882,-1.8885,-1.8904,-1.8936,-1.895,-1.894,-1.8946,-1.9029,-1.9035,-1.9066,-1.9072,-1.9083,-1.9085,-1.92,-1.92,-1.9221,0,0,0,-1.8879,-1.8878,-1.8902,-1.8899,-1.8949,-1.899,-1.8952,-1.903,-1.9039,-1.9072,-1.9084,-1.9086,-1.9199,-1.92,-1.922,-1.9232,0,0,0,-1.8869,-1.8877,-1.8888,-1.8899,-1.8931,-1.8989,-1.9,-1.9032,-1.9043,-1.9082,-1.9086,-1.9198,-1.92,-1.9218,-1.9229,-1.9261,0,0,0,-1.8857,-1.8906,-1.8888,-1.8946,-1.8931,-1.9002,-1.9,-1.9053,-1.909,-1.9084,-1.9199,-1.92,-1.9217,-1.9228,-1.9259,-1.9286,-1.9296,0,0,-1.8916,-1.8913,-1.8948,-1.8934,-1.9007,-1.8991,-1.9067,-1.9106,-1.9115,-1.9172,-1.9175,-1.922,-1.9229,-1.926,-1.936,-1.9369,0,0,0,-1.8964,-1.8989,-1.901,-1.9044,-1.9075,-1.9102,-1.913,-1.9145,-1.9193,-1.9143,-1.9241,-1.9246,-1.9265,-1.9278,-1.9285,-1.9301,-1.9206,-1.9206,-1.9206,-1.9039,-1.9049,-1.9106,-1.9125,-1.9158,-1.9187,-1.9215,-1.9239,-1.9239,-1.9262,-1.9278,-1.9338,-1.9353,-1.9358,-1.9375,-1.9294,-1.9294,-1.9294,-1.9295,-1.9126,-1.9162,-1.9161,-1.9217,-1.9227,-1.9274,-1.9304,-1.9302,-1.9347,-1.9326,-1.9343,-1.9318,-1.9367,-1.9382,-1.9296,-1.9296,-1.9296,-1.9296,-1.9295,-1.9175,-1.9194,-1.9211,-1.9261,-1.93,-1.9317,-1.9361,-1.9369,-1.9376,-1.9393,-1.9411,-1.9411,-1.9411,-1.9401,-1.9402,-1.9402,-1.9402,-1.9402,-1.9402,-1.9219,-1.9237,-1.9273,-1.931,-1.9333,-1.9365,-1.9395,-1.9418,-1.9445,-1.9448,-1.9448,-1.9445,-1.9371,-1.9351,-1.9406,-1.9405,-1.9405,-1.9404,-1.9404,-1.9302,-1.9284,-1.9339,-1.9362,-1.9407,-1.9444,-1.9454,-1.95,-1.9521,-1.9542,-1.9536,-1.948,-1.9478,-1.9472,-1.9456,-1.9534,-1.9534,-1.9534,-1.9534,-1.9342,-1.9342,-1.94,-1.9436,-1.9473,-1.9487,-1.9549,-1.9573,-1.9596,-1.9609,-1.9599,-1.9579,-1.9573,-1.9574,-1.9566,-1.9551,-1.9652,-1.9652,-1.9652,-1.9393,-1.9397,-1.9448,-1.9469,-1.9505,-1.9536,-1.9594,-1.9636,-1.9658,-1.9657,-1.962,-1.9615,-1.9582,-1.9571,-1.9567,-1.9555,-1.9528,0,0]},{"header":{"parameterUnit":"m.s-1","parameterCategory":1,"la1":30.2992,"la2":30.254,"lo1":-89.0895,"lo2":-89.0443,"dy":0.0025,"dx":0.0025,"nx":19,"ny":19,"refTime":"2026-03-25T21:00:00:Z","depth":0,"parameterNumber":3,"parameterNumberName":"V-component_of_WINDS"},"data":[0,0,0,1.1187,1.1187,1.1216,1.1216,1.1252,1.1252,0,0,0,0,0,0,0,0,0,0,0,1.1178,1.1178,1.1187,1.1187,1.1216,1.1216,1.1252,1.1252,0,0,0,0,0,0,0,0,0,0,0,1.1178,1.1178,1.1179,1.1187,1.1216,1.1216,1.1252,1.123,0,0,0,0,0,0,0,0,0,0,1.1203,1.1195,1.1178,1.1179,1.1188,1.1216,1.1216,1.1229,1.1232,1.1239,0,1.1245,0,1.1249,1.1255,1.1255,0,0,0,1.1187,1.1193,1.1201,1.1179,1.1188,1.1216,1.1203,1.1231,1.1233,1.1242,1.1246,1.1247,1.125,1.1255,1.1255,1.1297,1.1298,0,0,1.1186,1.1183,1.1199,1.1202,1.1198,1.1202,1.1204,1.1232,1.1236,1.1246,1.1248,1.1251,1.1255,1.1255,1.1297,1.1297,0,0,0,1.1181,1.1182,1.1189,1.1201,1.1206,1.1203,1.1205,1.1235,1.1237,1.1248,1.1251,1.1255,1.1256,1.1297,1.1297,1.1304,0,0,0,1.118,1.1179,1.1188,1.1187,1.1205,1.1221,1.1207,1.1236,1.1239,1.1251,1.1255,1.1256,1.1297,1.1297,1.1304,1.1308,0,0,0,1.1176,1.1179,1.1183,1.1187,1.1199,1.122,1.1225,1.1236,1.124,1.1255,1.1256,1.1297,1.1297,1.1303,1.1307,1.1319,0,0,0,1.1171,1.1188,1.1183,1.1203,1.1198,1.1224,1.1224,1.1244,1.1257,1.1256,1.1297,1.1297,1.1303,1.1306,1.1318,1.1328,1.1332,0,0,1.119,1.119,1.1202,1.1198,1.1225,1.122,1.1248,1.1262,1.1266,1.1287,1.1288,1.1304,1.1307,1.1319,1.1355,1.1358,0,0,0,1.1207,1.1216,1.1224,1.1236,1.1248,1.1259,1.127,1.1276,1.1294,1.1276,1.1311,1.1313,1.132,1.1325,1.1328,1.1334,1.1299,1.1299,1.1299,1.123,1.1235,1.1256,1.1264,1.1277,1.1289,1.13,1.1309,1.131,1.1318,1.1324,1.1346,1.1351,1.1353,1.136,1.133,1.133,1.133,1.133,1.1259,1.1273,1.1275,1.1295,1.1301,1.1318,1.1331,1.1331,1.1348,1.1341,1.1347,1.1339,1.1356,1.1363,1.1331,1.1331,1.133,1.133,1.133,1.1275,1.1282,1.129,1.131,1.1325,1.1333,1.135,1.1354,1.1358,1.1365,1.1372,1.1372,1.1373,1.1368,1.1368,1.1368,1.1368,1.1368,1.1368,1.1288,1.1296,1.131,1.1326,1.1335,1.1348,1.1362,1.1371,1.1383,1.1385,1.1385,1.1385,1.1357,1.135,1.1369,1.1369,1.1369,1.1369,1.1369,1.1316,1.1311,1.1332,1.1342,1.1361,1.1377,1.1382,1.1402,1.141,1.1419,1.1418,1.1397,1.1396,1.1394,1.1389,1.1417,1.1417,1.1417,1.1417,1.1329,1.133,1.1354,1.1369,1.1385,1.1392,1.1417,1.1428,1.1439,1.1445,1.1442,1.1434,1.1432,1.1433,1.143,1.1425,1.1462,1.1462,1.1462,1.1347,1.135,1.137,1.138,1.1396,1.141,1.1434,1.1452,1.1463,1.1464,1.145,1.1448,1.1436,1.1432,1.1432,1.1427,1.1418,0,0]}]]